Flag for Canada Weather past 2 weeks in Regina, Saskatchewan, Canada

Now
57 °F

Fog.


Feels Like: 57 °F
Forecast: 47 / 67 °F
Wind: 3 mph from East

Location: Regina Weather Station

Current Time: Aug 31, 2014 at 1:24:07 AM

Latest Report: Aug 31, 2014 at 12:00 AM


Visibility: 6 mi

Pressure: 29.70 "Hg

Humidity: N/A

Dew point: N/A

Location of ReginaLocation

Historic Weather in Regina — Graph

°F

Regina temperature yesterday

Maximum temperature yesterday: 68 °F (at 1:00 PM)
Minimum temperature yesterday: 52 °F (at 1:00 AM)
Average temperature yesterday: 60 °F

Past Weeks' High & Low Weather Summary

 TemperatureHumidityPressure
High86 °F (Aug 19, 3:00 PM)100% (Aug 17, 2:51 AM)30.25 "Hg (Aug 17, 2:51 AM)
Low41 °F (Aug 26, 4:00 AM)39% (Aug 27, 1:00 PM)29.58 "Hg (Aug 20, 4:00 AM)
Average61 °F81%29.93 "Hg
* Reported Midnight between Aug 15 and Aug 16 — Midnight between Aug 30 and Aug 31, Regina, Weather by CustomWeather, © 2014

Note: Actual official high and low records may vary slightly from our data, if they occured in-between our weather recording intervals... More about our weather records

Advertising

Regina weather history for previous 24 hours

 ConditionsComfort  
Time TempWeatherWind HumidityBarometerVisibility
12:00 AM
Aug 31
57 °FFog.3 mphN/A29.70 "Hg6 mi
11:00 PM
Aug 30
59 °FPassing clouds.N/AN/A29.69 "Hg15 mi
10:00 PM59 °FPartly cloudy.6 mphN/A29.68 "Hg15 mi
9:00 PM61 °FPassing clouds.8 mphN/A29.69 "Hg15 mi
8:00 PM63 °FScattered showers. Partly cloudy.6 mphN/A29.68 "Hg15 mi
7:00 PM63 °FBroken clouds.6 mphN/A29.68 "Hg15 mi
6:00 PM64 °FPartly sunny.9 mphN/A29.70 "Hg15 mi
5:00 PM66 °FSprinkles. Partly sunny.10 mphN/A29.70 "Hg12 mi
4:00 PM64 °FSprinkles. Overcast.14 mph83%29.69 "Hg15 mi
3:49 PM66 °FSprinkles. Overcast.14 mph78%29.69 "Hg15 mi
3:00 PM68 °FOvercast.12 mph73%29.68 "Hg15 mi
2:00 PM68 °FScattered showers. Mostly cloudy.10 mph73%29.69 "Hg15 mi
1:00 PM68 °FMostly cloudy.16 mph69%29.69 "Hg15 mi
12:00 PM66 °FMore clouds than sun.20 mph73%29.71 "Hg15 mi
11:00 AM64 °FMostly cloudy.16 mph83%29.73 "Hg15 mi
10:00 AM59 °FSprinkles. Partly sunny.14 mph88%29.75 "Hg15 mi
9:00 AM61 °FCloudy.22 mph77%29.74 "Hg15 mi
8:00 AM57 °FScattered clouds.18 mph82%29.77 "Hg15 mi
7:00 AM54 °FPartly sunny.16 mph88%29.80 "Hg15 mi
6:00 AM52 °FPassing clouds.16 mph94%29.82 "Hg15 mi
5:00 AM52 °FClear.16 mph88%29.83 "Hg15 mi
4:00 AM52 °FClear.15 mph82%29.86 "Hg15 mi
3:00 AM52 °FClear.13 mph82%29.88 "Hg15 mi
2:00 AM52 °FClear.13 mph82%29.90 "Hg15 mi
1:00 AM52 °FClear.13 mph82%29.93 "Hg15 mi
Weather by CustomWeather, © 2014

See weather overviewHow to use our weather pages